Temp
37 39 40 40 41 42 42 43 43 45 45 47 48 50 51 53 55 56 55 54 52 51 51 51 49 50 49 49 49 50 49 51 46 40 41 40 37 37 38 38 38 37 37
36 39 39 39 40 40 40 41 43 43 44 45 47 47 48 48 50 50 49 49 48 46 46 46 45 46 45 46 46 45 46 47 47 39 38 36 35 35 35 35 36 36 36
34 38 38 37 38 38 38 39 41 42 43 44 45 44 44 45 45 45 45 44 43 43 44 44 43 45 43 43 43 42 41 42 42 39 34 34 34 34 34 34 34 34 35
33 37 36 36 37 37 38 38 39 40 41 42 42 42 42 43 43 43 42 42 41 40 40 40 41 41 41 41 40 39 38 37 37 35 34 32 32 32 31 31 32 32 31
33 35 36 36 37 37 37 37 38 38 39 40 40 41 41 41 42 42 41 40 39 38 38 38 37 36 37 38 38 36 38 36 36 34 32 31 30 30 29 30 30 28 28
32 35 36 36 36 35 36 36 36 36 37 38 38 38 39 40 39 39 40 39 38 37 35 35 36 36 38 38 38 38 38 37 35 34 32 31 29 30 30 29 28 28 31
34 34 33 33 32 34 34 35 35 34 35 35 36 37 37 38 38 38 37 37 36 36 35 35 33 33 34 35 35 35 35 36 36 35 32 31 30 30 29 26 26 29 29
33 33 32 32 30 32 33 33 34 34 33 34 34 35 36 37 38 37 36 36 35 34 35 34 34 33 33 33 33 32 32 33 33 33 33 32 32 31 31 30 28 26 25
31 32 31 31 31 31 31 31 32 33 33 33 34 34 34 35 37 37 35 35 33 32 33 34 33 33 35 35 32 31 31 32 35 36 36 34 34 33 32 29 25 27 28
30 31 31 31 30 30 30 29 29 31 31 32 31 32 32 33 36 36 34 34 32 31 32 32 32 34 35 34 31 30 28 28 28 28 29 30 30 30 30 29 28 25 24
26 27 26 28 29 29 28 28 28 28 28 27 27 27 29 31 35 36 35 33 32 30 30 30 32 35 35 34 32 30 29 31 30 28 28 27 26 25 25 25 26 26 24
22 22 21 21 26 27 24 24 24 25 25 25 26 26 26 27 32 36 36 34 34 30 29 30 32 35 35 34 32 33 32 31 29 27 26 24 23 22 21 21 20 21 21
20 19 20 23 22 23 23 22 23 23 24 25 26 27 28 26 27 36 36 35 34 28 28 33 35 35 35 34 34 33 30 29 27 25 24 23 21 18 17 20 19 18 18
22 20 23 24 24 22 24 24 24 22 22 22 23 24 26 29 26 26 29 32 31 29 33 32 32 33 32 32 31 30 29 28 27 25 24 20 17 18 18 16 21 19 22
22 21 22 24 24 24 22 24 24 23 25 23 23 23 23 23 26 28 28 27 27 28 30 26 23 23 24 26 27 26 27 27 25 20 18 18 18 17 17 13 15 15 21
24 23 24 23 22 23 22 22 29 30 31 32 32 26 24 28 31 32 33 32 31 30 24 23 21 17 18 21 22 24 25 25 25 18 17 18 18 18 17 13 13 17 19
27 26 25 24 23 23 21 22 23 26 32 34 34 34 34 29 33 34 34 34 33 31 23 17 17 15 17 16 20 22 23 25 24 19 18 17 16 15 15 16 16 16 14
26 25 26 26 26 25 25 25 23 23 25 25 30 33 35 35 33 34 35 34 29 31 27 21 18 17 17 16 15 15 17 17 22 20 17 15 14 15 14 16 15 16 17
27 28 27 27 26 26 26 25 25 24 24 23 20 26 27 35 35 34 35 31 29 27 29 28 22 20 19 18 18 17 17 19 21 23 20 16 15 15 15 17 16 12 12
26 26 27 27 26 25 25 25 24 24 25 25 23 25 22 25 30 30 31 31 30 29 28 27 28 23 19 18 18 18 17 18 19 20 21 17 16 16 17 14 14 14 14
26 26 27 26 26 26 26 26 26 26 26 26 26 26 26 25 27 29 30 31 31 31 30 27 27 22 20 20 19 18 18 19 18 19 18 17 16 15 16 16 16 15 15
25 25 24 26 26 26 26 27 26 27 27 27 28 28 31 25 26 28 29 30 31 31 32 29 24 24 23 21 20 19 19 19 18 18 18 17 17 18 16 16 16 15 14
24 23 23 24 24 23 23 25 26 26 27 28 28 27 26 27 26 27 28 29 30 30 30 27 26 24 24 23 23 23 22 21 21 21 19 18 18 18 17 17 17 15 14
22 23 24 24 23 24 25 25 26 26 26 26 27 28 27 27 28 27 28 28 28 29 29 27 27 27 25 22 22 23 24 25 24 22 22 21 20 19 19 19 18 17 17
21 21 22 23 23 24 24 24 24 25 26 27 28 28 28 28 28 29 29 28 28 27 27 27 27 26 25 23 23 22 23 25 24 24 23 23 22 21 20 20 19 18 18
15 17 17 15 17 19 22 21 23 24 25 26 26 28 29 29 29 29 29 29 28 27 27 26 26 25 25 24 24 24 23 23 23 24 23 23 22 21 21 21 20 19 18
MSLP
1024.57 1024.06 1023.44 1023.22 1022.90 1022.56 1022.46 1022.34 1021.77 1021.61 1021.51 1021.22 1020.85 1020.72 1020.43 1020.03 1019.73 1019.92 1020.11 1020.50 1020.90 1021.13 1021.55 1021.55 1021.98 1022.40 1022.33 1022.26 1022.31 1022.52 1022.83 1023.13 1024.39 1026.59 1027.20 1027.95 1028.49 1028.63 1028.60 1028.57 1028.52 1028.39 1028.13
1024.39 1023.45 1023.29 1023.20 1023.05 1022.91 1022.58 1022.34 1022.06 1022.10 1021.76 1021.06 1020.98 1020.62 1020.63 1020.41 1020.28 1020.53 1020.85 1021.22 1021.49 1021.83 1022.22 1022.65 1022.96 1022.79 1023.23 1023.44 1023.33 1023.16 1023.73 1023.86 1024.38 1026.13 1027.55 1028.40 1028.92 1029.02 1028.92 1028.99 1028.69 1028.66 1028.47
1024.75 1023.75 1023.51 1023.36 1023.39 1023.17 1022.95 1022.75 1022.56 1022.17 1021.83 1021.15 1021.27 1021.13 1021.00 1021.13 1021.11 1021.18 1021.55 1021.99 1022.35 1022.52 1022.75 1023.13 1023.39 1023.57 1023.97 1024.17 1024.18 1024.15 1024.65 1024.69 1025.12 1025.69 1027.38 1028.45 1029.25 1029.22 1029.18 1029.44 1028.98 1029.00 1028.82
1024.42 1024.04 1023.85 1023.89 1023.75 1023.38 1023.09 1022.68 1022.49 1022.25 1022.26 1021.60 1021.77 1021.84 1021.67 1021.75 1021.81 1021.79 1022.20 1022.54 1022.77 1023.45 1023.63 1023.76 1024.00 1024.22 1024.56 1024.73 1024.81 1024.91 1025.26 1025.35 1026.12 1026.76 1027.76 1028.48 1029.21 1029.62 1029.60 1029.76 1029.33 1029.53 1029.39
1025.12 1024.82 1024.64 1024.35 1023.87 1023.85 1023.33 1023.10 1022.75 1022.96 1022.52 1022.27 1022.36 1022.56 1022.40 1022.38 1022.44 1022.45 1022.50 1022.91 1023.45 1023.98 1024.33 1024.44 1024.88 1025.24 1025.20 1025.19 1025.39 1025.59 1025.88 1026.26 1026.65 1027.23 1028.26 1028.75 1029.54 1029.74 1029.95 1029.81 1029.80 1029.99 1030.47
1025.52 1025.26 1024.92 1024.56 1024.37 1024.07 1023.88 1023.93 1022.96 1023.30 1023.38 1023.14 1023.01 1022.97 1022.83 1023.05 1022.81 1022.79 1022.99 1023.44 1023.91 1024.43 1025.00 1025.51 1025.72 1025.70 1025.96 1026.10 1026.02 1026.31 1026.42 1026.51 1027.15 1028.09 1028.78 1029.07 1029.84 1029.93 1029.94 1029.92 1030.06 1030.35 1030.36
1025.44 1025.27 1025.16 1025.07 1025.03 1024.88 1024.60 1024.34 1023.62 1023.74 1023.98 1023.85 1023.51 1023.58 1023.40 1023.49 1023.47 1023.58 1023.65 1023.91 1024.41 1024.98 1025.54 1026.21 1026.30 1026.59 1026.83 1026.85 1027.11 1027.19 1027.43 1027.45 1027.54 1028.15 1028.91 1029.46 1029.76 1030.10 1030.06 1030.54 1030.39 1030.52 1030.89
1025.20 1025.12 1025.16 1025.23 1025.33 1025.25 1024.94 1024.40 1024.23 1024.45 1024.61 1024.37 1024.13 1023.98 1024.00 1024.22 1024.26 1024.60 1024.49 1024.67 1025.12 1025.48 1025.82 1026.15 1026.69 1026.99 1027.16 1027.21 1027.76 1028.27 1028.65 1028.63 1028.69 1029.16 1029.22 1029.79 1030.07 1030.29 1030.37 1030.38 1030.72 1031.08 1031.69
1025.57 1025.33 1025.24 1025.26 1025.32 1025.29 1025.27 1025.30 1025.32 1025.39 1025.33 1025.16 1024.90 1024.79 1024.74 1024.75 1024.87 1024.97 1024.89 1025.19 1025.52 1026.06 1026.47 1026.61 1026.65 1027.24 1027.62 1027.73 1027.91 1028.55 1029.10 1029.44 1029.45 1029.61 1029.74 1030.25 1030.26 1030.44 1030.38 1030.36 1030.91 1031.23 1031.45
1026.13 1026.00 1025.88 1025.63 1025.53 1025.61 1025.80 1025.82 1025.83 1025.70 1025.67 1025.59 1025.45 1025.36 1025.39 1025.37 1025.27 1025.17 1025.23 1025.38 1025.95 1026.60 1027.09 1027.35 1027.66 1027.66 1027.87 1027.90 1028.14 1028.78 1029.32 1029.85 1030.27 1030.61 1030.74 1030.68 1030.92 1031.03 1030.72 1030.60 1030.83 1031.03 1031.38
1026.37 1026.41 1026.58 1026.44 1026.04 1025.88 1025.90 1026.00 1026.00 1026.03 1026.11 1026.22 1026.29 1026.20 1026.01 1025.93 1025.73 1025.59 1025.65 1025.70 1026.04 1026.70 1027.22 1027.55 1027.81 1027.88 1028.04 1028.08 1028.33 1028.93 1029.51 1030.00 1030.42 1030.83 1030.92 1031.17 1031.57 1031.64 1031.66 1031.70 1031.58 1031.36 1031.53
1026.09 1026.69 1026.76 1026.80 1026.89 1026.83 1026.29 1026.00 1026.13 1026.32 1026.52 1026.72 1026.82 1026.75 1026.60 1026.56 1026.00 1025.77 1025.88 1026.05 1026.29 1026.79 1027.26 1027.56 1027.95 1028.02 1028.07 1028.28 1028.77 1029.09 1029.60 1030.15 1030.58 1030.87 1031.24 1031.68 1032.08 1032.44 1032.78 1032.79 1032.73 1032.49 1032.45
1025.30 1026.06 1026.44 1026.78 1026.80 1026.77 1027.11 1027.08 1026.66 1026.45 1026.52 1026.91 1026.98 1026.99 1026.89 1026.92 1026.93 1026.34 1026.33 1026.40 1026.75 1027.29 1027.72 1027.81 1027.90 1028.11 1028.37 1028.69 1028.87 1029.32 1029.93 1030.19 1030.52 1031.00 1031.42 1031.94 1032.47 1032.96 1033.12 1032.97 1033.04 1033.16 1033.18
1024.54 1025.08 1025.68 1026.10 1026.33 1026.45 1026.56 1026.73 1027.01 1026.78 1026.55 1026.65 1026.93 1027.03 1026.98 1026.81 1026.84 1026.93 1026.91 1026.85 1027.09 1027.59 1027.65 1027.92 1028.27 1028.51 1028.78 1028.89 1029.24 1029.73 1029.99 1030.07 1030.38 1030.87 1031.44 1032.26 1033.00 1033.07 1033.14 1033.54 1033.33 1033.43 1033.31
1023.48 1024.01 1024.60 1025.09 1025.64 1025.93 1026.11 1026.07 1026.16 1026.25 1026.41 1026.30 1026.28 1026.73 1027.12 1027.17 1026.74 1026.49 1026.60 1026.95 1027.30 1027.75 1027.91 1028.64 1029.06 1029.24 1029.36 1029.42 1029.62 1029.89 1030.07 1030.30 1030.57 1031.02 1031.65 1032.23 1032.68 1032.92 1033.28 1033.90 1033.57 1033.60 1033.37
1022.80 1023.13 1023.38 1024.14 1024.55 1024.99 1025.23 1025.33 1025.24 1025.16 1025.43 1025.56 1026.02 1026.42 1026.81 1026.73 1026.47 1026.66 1026.90 1027.05 1027.31 1027.74 1028.44 1028.68 1029.09 1029.42 1029.49 1029.51 1029.64 1029.78 1029.97 1030.25 1030.58 1031.09 1031.47 1031.78 1032.05 1032.41 1032.85 1033.45 1033.48 1033.50 1033.53
1021.73 1021.93 1022.50 1022.96 1023.45 1024.01 1024.52 1024.73 1024.86 1024.75 1024.84 1024.81 1024.89 1025.42 1025.92 1026.53 1026.48 1026.39 1026.48 1026.81 1027.25 1027.69 1027.85 1028.11 1028.41 1028.69 1028.95 1029.48 1029.57 1029.63 1029.69 1029.89 1030.16 1030.77 1031.21 1031.63 1032.01 1032.38 1032.58 1032.81 1033.08 1033.27 1033.41
1020.95 1021.24 1021.62 1022.06 1022.44 1022.91 1023.33 1023.74 1024.08 1024.15 1024.17 1024.39 1024.58 1024.49 1024.72 1025.37 1026.07 1026.21 1026.38 1026.69 1026.78 1026.86 1027.37 1027.81 1027.95 1028.15 1028.36 1028.72 1028.99 1029.20 1029.37 1029.56 1029.84 1030.29 1030.85 1031.25 1031.65 1031.86 1032.19 1032.08 1032.36 1032.43 1032.82
1019.50 1020.02 1020.47 1020.68 1021.25 1021.60 1021.94 1022.30 1022.79 1023.40 1023.64 1023.43 1023.94 1024.17 1024.45 1024.40 1024.90 1025.52 1025.74 1025.88 1026.06 1026.30 1026.34 1026.51 1027.07 1027.35 1027.66 1027.98 1028.17 1028.45 1028.68 1028.93 1029.14 1029.52 1030.12 1030.69 1031.14 1031.56 1031.81 1031.96 1032.25 1032.58 1032.67
1018.47 1018.67 1019.18 1019.76 1020.36 1020.68 1021.12 1021.55 1021.85 1022.01 1022.34 1022.80 1022.80 1022.59 1023.40 1024.04 1023.97 1024.31 1024.78 1025.00 1025.06 1025.00 1025.15 1025.35 1025.52 1026.01 1026.48 1026.93 1027.31 1027.62 1028.00 1028.31 1028.56 1028.88 1029.17 1029.77 1030.33 1030.71 1030.91 1031.34 1031.79 1032.10 1032.41
1017.47 1018.30 1018.60 1018.99 1019.40 1019.71 1019.93 1020.14 1020.61 1020.90 1020.99 1021.13 1020.97 1021.32 1021.63 1022.25 1022.48 1022.65 1022.92 1023.28 1023.45 1023.67 1023.88 1024.24 1024.49 1024.89 1025.28 1025.63 1026.01 1026.44 1026.81 1027.05 1027.38 1027.71 1028.19 1028.77 1029.39 1029.83 1030.13 1030.61 1031.05 1031.49 1031.69
1016.08 1016.86 1017.91 1018.31 1018.66 1019.21 1019.43 1019.76 1019.80 1020.09 1020.29 1020.23 1020.44 1020.66 1020.89 1021.07 1021.00 1021.08 1021.27 1021.40 1021.66 1022.02 1022.27 1022.72 1023.15 1023.44 1023.86 1024.31 1024.74 1025.12 1025.38 1025.59 1026.01 1026.48 1026.92 1027.48 1028.07 1028.77 1029.27 1029.72 1030.25 1030.71 1031.21
1015.29 1016.17 1017.05 1017.77 1017.79 1017.86 1018.08 1018.29 1018.49 1018.69 1019.08 1019.27 1019.39 1019.71 1020.18 1020.21 1020.18 1020.04 1019.62 1019.82 1020.26 1020.55 1020.89 1021.52 1021.95 1022.19 1022.40 1022.74 1023.01 1023.19 1023.49 1023.62 1023.97 1024.81 1025.57 1026.11 1026.57 1027.23 1027.85 1028.49 1029.14 1029.86 1030.29
1014.35 1015.16 1016.20 1016.90 1017.26 1017.20 1017.19 1017.34 1017.36 1017.53 1017.77 1018.02 1018.22 1018.26 1018.17 1018.36 1018.45 1018.65 1018.77 1018.61 1018.85 1019.43 1019.79 1019.94 1019.94 1020.17 1020.61 1021.11 1021.45 1021.70 1021.87 1021.98 1022.53 1023.06 1023.71 1024.61 1025.05 1025.71 1026.45 1026.98 1027.57 1028.24 1028.91
1014.39 1014.70 1015.62 1016.60 1016.84 1016.79 1016.70 1016.66 1016.77 1016.74 1017.25 1016.99 1017.04 1017.37 1017.15 1017.17 1017.33 1017.53 1017.72 1017.87 1017.64 1017.94 1018.32 1018.53 1018.70 1018.65 1018.89 1019.40 1019.81 1020.17 1020.57 1020.94 1021.40 1021.84 1022.23 1022.97 1023.73 1024.22 1024.81 1025.48 1026.12 1026.95 1027.77
1014.38 1014.56 1015.26 1016.19 1016.46 1016.25 1016.34 1016.18 1016.13 1016.14 1016.44 1016.42 1016.18 1016.31 1016.39 1016.43 1016.36 1016.53 1016.60 1016.81 1016.87 1016.83 1017.02 1017.33 1017.64 1017.57 1017.68 1018.06 1018.35 1018.74 1019.23 1019.60 1020.32 1020.71 1021.36 1021.76 1022.42 1023.04 1023.53 1024.05 1024.76 1025.51 1026.34
Wind_Speed
7 6 6 6 6 5 4 5 5 4 5 5 5 4 3 3 1 3 4 4 5 5 3 4 4 2 2 3 3 3 4 3 4 3 2 4 5 5 6 5 7 7 6
6 7 6 6 6 5 6 5 5 4 3 3 4 4 4 4 4 5 6 5 7 7 6 7 5 4 6 5 4 6 3 2 3 5 2 3 5 3 3 4 6 6 6
6 6 6 6 6 5 5 5 5 4 4 4 4 4 5 5 5 7 8 9 8 7 7 7 5 5 5 4 5 5 3 3 3 4 4 2 2 3 3 2 4 6 6
5 5 5 5 5 5 5 6 6 6 5 6 6 6 6 6 6 8 9 9 10 8 7 7 7 7 6 5 5 5 4 6 6 7 5 4 3 2 3 2 3 4 8
3 3 3 3 4 4 5 5 6 6 6 6 6 6 6 6 5 7 8 9 10 9 9 10 10 9 13 9 4 4 5 5 4 5 4 3 2 3 2 3 2 2 2
1 2 3 4 4 5 4 4 6 6 6 6 7 6 8 6 12 12 9 9 8 9 9 9 8 11 15 17 17 16 8 5 6 3 2 4 3 2 2 3 2 1 2
1 1 3 4 4 5 4 4 6 6 5 5 7 6 8 7 13 14 12 8 8 8 9 8 8 6 9 11 17 20 18 20 13 6 8 4 4 3 2 1 2 3 3
2 1 2 2 3 3 3 5 6 4 4 4 5 6 7 7 11 12 12 9 8 8 8 9 8 8 8 10 11 12 12 12 11 8 10 8 6 4 2 1 2 4 2
4 2 2 3 3 3 4 4 3 3 4 5 4 6 6 6 9 10 9 7 8 8 6 7 8 8 10 12 11 11 11 10 13 15 15 13 12 11 7 3 3 2 1
4 4 1 1 3 4 3 3 2 3 4 4 6 5 5 5 8 10 8 6 8 6 5 6 7 7 11 12 9 9 10 8 6 6 6 9 9 9 13 9 3 2 1
2 0 3 4 2 3 4 2 3 3 4 4 4 3 4 3 4 8 9 4 5 5 5 4 3 10 10 11 10 7 7 9 9 5 5 5 5 7 7 7 7 4 3
4 1 2 1 2 3 1 3 3 4 4 4 3 2 2 3 2 5 7 6 9 6 6 4 3 10 10 11 8 15 14 9 5 5 4 4 4 4 4 5 7 8 7
7 6 4 3 2 2 2 2 2 3 4 4 3 3 2 1 2 3 6 9 9 4 3 7 9 10 10 9 14 13 9 5 5 4 4 3 2 2 2 2 3 3 4
7 7 6 6 6 4 3 3 3 3 3 3 4 4 4 4 3 2 2 4 8 7 9 5 6 7 7 6 7 6 4 5 4 4 4 3 3 3 2 1 1 1 3
7 6 7 6 7 6 5 4 5 4 4 3 4 3 5 5 6 8 7 5 5 6 7 4 3 2 3 5 5 5 4 4 5 4 4 4 3 3 3 2 1 2 2
8 7 7 7 6 5 4 4 12 13 11 13 9 7 4 5 6 13 12 12 13 15 3 5 6 5 6 7 6 6 6 7 6 4 4 5 5 5 5 3 2 2 3
11 9 7 8 7 6 5 6 6 5 14 15 14 14 12 8 9 13 14 14 15 14 4 5 5 6 6 6 6 6 7 6 4 4 4 5 3 3 4 3 3 3 3
10 7 7 7 7 7 7 7 5 6 6 4 11 13 14 13 11 12 14 12 8 13 7 7 6 6 6 7 7 6 5 4 6 5 5 5 5 5 4 5 5 4 4
10 9 9 7 8 8 7 8 7 7 7 5 3 5 5 14 14 14 16 10 9 10 10 10 7 7 7 7 6 6 7 6 7 7 6 5 6 4 3 4 4 3 4
9 11 10 8 7 8 7 8 7 9 8 8 7 9 5 4 8 9 10 10 10 10 9 10 9 8 8 8 7 7 6 7 7 7 7 6 6 6 5 5 6 6 5
6 6 11 7 8 9 9 10 9 8 9 9 10 9 17 10 10 10 11 12 12 12 11 10 9 7 7 7 7 8 8 7 8 8 8 7 7 8 6 5 6 5 4
7 6 6 8 6 6 7 6 7 8 8 8 7 7 20 10 10 10 11 11 11 11 10 10 9 9 9 9 9 9 9 10 9 9 9 8 8 8 7 7 7 6 6
6 6 5 5 6 7 7 8 8 9 9 8 8 7 8 10 10 10 11 10 10 10 9 8 9 9 8 9 9 10 11 11 11 10 10 10 10 9 9 9 8 7 7
7 7 7 6 6 7 7 7 8 10 9 8 8 9 9 10 11 12 11 9 9 10 9 10 11 13 10 10 10 10 11 10 9 12 14 11 11 12 10 10 10 11 9
4 5 5 6 7 7 6 6 6 6 7 8 8 8 8 8 9 10 9 9 9 9 11 11 10 13 16 16 14 15 14 15 13 13 12 12 13 15 13 11 11 10 10
4 4 4 3 4 4 5 4 6 5 6 6 6 7 7 8 8 8 8 9 8 9 10 9 11 16 15 14 17 18 17 17 16 17 12 11 12 11 12 13 16 11 13
Wind_Direction
341 337 354 355 357 356 7 350 349 340 342 342 334 321 321 334 279 159 98 87 91 85 46 90 80 57 89 133 131 134 148 158 119 108 90 57 58 69 61 57 43 39 25
333 352 1 358 5 5 6 4 354 343 339 354 337 16 24 32 45 79 86 79 99 87 71 65 58 77 56 32 26 68 58 25 116 125 102 79 55 48 65 58 41 38 29
335 354 360 6 2 10 4 3 5 5 18 40 50 66 70 62 76 79 90 86 75 76 84 81 68 75 66 56 51 67 53 59 29 111 118 92 77 35 54 25 28 27 25
350 357 14 2 358 6 9 21 21 19 25 52 42 48 61 69 88 95 99 96 85 74 67 78 67 65 86 82 79 67 68 76 71 91 84 103 77 40 64 16 61 37 25
350 346 360 10 26 16 25 30 37 27 38 46 61 57 65 64 69 97 98 95 99 90 75 71 69 76 76 72 90 81 94 90 100 84 88 89 66 46 32 7 58 29 53
11 356 1 20 23 28 40 31 66 44 38 48 56 60 62 73 79 80 92 98 100 99 97 88 83 85 79 80 80 75 66 106 100 105 102 93 97 67 26 21 37 68 59
190 66 38 28 33 23 12 30 55 63 56 56 65 69 70 73 86 95 96 94 101 106 112 112 102 85 91 91 81 77 69 69 73 101 115 100 93 33 62 349 44 62 67
210 124 80 76 53 23 31 44 42 35 44 51 58 66 78 79 97 103 98 99 101 101 114 114 111 102 97 101 93 81 73 73 76 87 88 88 83 70 72 70 87 88 94
264 209 160 128 98 69 58 56 39 67 57 66 62 77 88 88 105 111 105 101 92 89 86 98 107 112 120 116 107 102 99 90 82 87 83 77 68 55 47 131 86 152 131
276 289 293 168 139 127 122 98 45 50 60 45 61 53 72 88 103 109 107 112 110 104 95 100 111 124 139 133 119 124 117 111 103 82 77 62 54 48 46 48 47 105 116
241 129 335 311 209 160 144 122 127 107 97 79 71 37 65 90 117 125 128 114 125 122 125 123 129 137 134 127 124 131 132 137 119 107 95 72 51 48 42 39 41 57 93
162 204 220 247 312 314 152 133 122 128 116 108 109 83 38 2 167 150 155 142 142 133 140 126 137 143 137 132 125 126 132 129 128 124 115 92 77 65 52 53 52 60 54
162 188 200 240 276 191 216 265 151 159 156 166 170 167 178 350 355 186 161 155 146 117 130 143 148 144 143 142 134 137 141 147 147 150 142 123 107 122 141 109 75 58 68
183 190 190 207 218 232 218 190 228 208 189 174 191 199 199 199 205 226 194 151 146 136 157 137 132 150 147 147 147 151 175 175 175 171 160 129 140 154 147 82 112 52 73
190 183 195 190 207 212 219 205 206 220 216 205 202 178 187 223 231 200 175 169 162 165 140 109 126 130 160 173 184 192 189 189 192 164 164 170 165 155 153 163 144 144 127
197 196 193 196 194 202 203 233 234 232 232 237 247 210 214 241 221 201 200 188 175 157 132 186 196 195 196 192 197 202 205 204 204 175 179 183 181 177 158 159 156 190 161
211 194 191 194 193 201 204 209 234 230 237 238 233 238 232 228 223 202 197 192 189 184 210 199 207 195 204 203 202 202 205 206 196 183 184 191 176 163 163 170 158 165 164
215 210 195 198 197 193 197 208 206 201 212 222 245 231 229 229 224 216 205 199 207 213 224 230 229 208 202 204 204 204 200 199 194 185 190 186 185 176 178 182 186 174 166
201 206 202 193 197 200 192 190 195 202 225 219 183 221 230 220 222 218 212 214 218 228 228 231 218 218 214 211 210 203 200 202 196 193 190 184 185 178 198 194 183 176 149
204 203 192 201 197 195 198 201 202 206 203 219 211 215 163 163 206 208 213 219 221 227 223 228 223 206 206 204 201 199 200 199 195 197 195 187 188 193 196 178 184 178 201
191 193 203 200 207 208 206 207 214 212 215 217 217 203 187 188 207 210 212 217 221 224 226 227 228 213 209 205 197 194 202 205 202 197 195 191 186 195 191 189 187 195 166
178 178 187 212 211 213 215 218 214 220 228 226 232 221 207 205 206 208 213 216 216 218 218 216 218 219 211 205 200 201 202 205 197 197 196 188 185 192 183 187 186 184 180
162 165 183 208 200 195 195 201 205 209 218 220 209 195 202 218 218 223 216 217 216 216 212 201 212 218 211 210 206 203 203 207 201 189 189 189 186 186 183 187 188 181 183
161 167 192 205 208 212 215 213 213 215 216 219 217 218 207 212 216 220 223 217 214 224 219 213 211 215 214 208 206 206 212 205 192 190 184 188 190 183 185 189 185 190 184
150 154 183 215 218 218 217 217 216 209 225 221 221 229 227 219 225 227 223 223 219 217 222 218 221 220 216 211 210 210 213 209 199 190 185 188 193 188 188 191 184 182 178
154 142 156 180 216 205 215 207 217 216 222 226 222 226 230 236 233 228 224 223 224 223 223 219 224 220 217 219 218 213 206 201 203 194 187 188 188 189 189 192 187 183 184